Voltar ao catálogo

COSMOS 2251 DEB

AtivoLEO
NORAD 33945·DEBRIS·🇷🇺 Russia

Lançado Jun 16, 1993 de Plesetsk Cosmodrome

Loading…

Próximas Passagens (próximas 24 horas)

TLE

AtualizadoSource: Space-Track

Época: Sep 13, 2026, 20:39 UTC

1 33945U 93036FA  26256.86077871  .00000170  00000-0  69061-4 0  9994
2 33945  74.0304 162.0719 0023001 187.8337 172.2460 14.34771787919610

Acompanhe COSMOS 2251 DEB em tempo real com AllMySat

Download on the App Store